www.pogodaiklimat.ru

Погода и климат >> Архив погоды >> Аргентина >> Сан-Мартин


ПОГОДА в Сан-Мартине

  • Прогноз погоды в Сан-Мартине
  • Монитор погоды в Сан-Мартине

АРХИВ ПОГОДЫ в Сан-Мартине

Время (UTC), дата Ветер
(напр.,м/с)
 
Видим.   Явления Облачность Т
(С)
Тd
(С)
f
(%)
Тe
(С)
Тes
(С)
Комфортность P
(гПа)
Po
(гПа)
Тmin
(С)
Tmax
(С)
R
(мм)
R24
(мм)
S
(см)
06 9.01 ЮЗ 4 15 км ясно +20.4 +11.3 56 +22 +22 комфорт 1000.2 929.0
09 9.01 ЮЗ 3 15 км 3/0
[Ac As]
+18.5 +8.2 51 +19 +19 1001.9 930.5
12 9.01 ЮВ 3 15 км 5/0
[Ac As]
+19.4 +11.7 61 +21 +24 комфорт 1004.7 932.8 +17.8 +29.7
15 9.01 ЮВ 4 15 км 5/0
[Ci]
+23.7 +9.2 40 +25 +36 комфорт 1003.7 931.7
18 9.01 ЮВ 1 15 км 4/0
[Ci]
+27.5 +8.8 31 +28 +48 жарко 1001.4 929.6
21 9.01 ЮВ 3 15 км 5/0
[Ci]
+28.1 +7.9 28 +28 +32 жарко 1000.1 928.2
00 10.01 В 3 15 км 6/6 1050 м
[Sc]
+24.8 +8.6 36 +25 +25 комфорт 1003.8 931.4 +19.4 +29.1
03 10.01 ЮВ 7 15 км 8/8 1050 м
[Sc]
+19.0 +3.4 35 +19 +19 1009.3 936.2
06 10.01 ЮВ 7 15 км 10/10 1050 м
[St]
+12.4 +4.3 58 +10 +10 1013.3 939.7
09 10.01 ЮВ 7 15 км 10/10 1050 м
[St]
+11.0 +3.0 58 +8 +8 1016.4 942.5
12 10.01 Ю 1 15 км {морось} 10/10 1050 м
[St]
+11.0 +3.0 58 +11 +11 1020.3 945.7 +9.6 +24.8
15 10.01 Ю 1 15 км 10/10 1050 м
[St]
+15.0 -0.8 34 +16 +16 1019.6 944.8
18 10.01 Ю 1 15 км 10/10 1050 м
[St]
+16.8 +1.6 36 +18 +18 1018.3 943.0
21 10.01 З 1 15 км 10/8 1050 м
[St Ac As]
+17.4 +0.7 32 +18 +19 1015.9 940.6
00 11.01 СЗ 3 15 км 10/10 1200 м
[Sc]
+16.0 +3.6 44 +16 +16 1016.7 941.2 +10.8 +20.5
03 11.01 СЗ 1 15 км 10/10 1200 м
[Sc]
+16.0 +4.2 45 +17 +17 1016.2 941.3
06 11.01 штиль 0 15 км 6/6 1350 м
[Sc]
+14.5 +4.2 50 +14 +14 1014.2 939.4
09 11.01 штиль 0 15 км 8/4 1350 м
[Sc Ac und]
+14.5 +5.0 53 +14 +14 1013.7 939.0
12 11.01 СЗ 1 15 км 9/9 1200 м
[Sc]
+15.9 +4.3 46 +17 +17 1014.6 939.8 +13.6 +16.0
15 11.01 С 4 15 км ясно +21.3 +4.2 33 +22 +34 комфорт 1011.8 938.0
18 11.01 СЗ 4 15 км ясно +26.7 +2.9 21 +25 +38 комфорт 1008.6 935.4
21 11.01 СЗ 3 15 км 1/1 1200 м
[Cu hum]
+28.2 +4.2 22 +27 +31 жарко 1005.6 932.9
00 12.01 С 1 15 км ясно +24.9 +5.6 29 +25 +25 комфорт 1007.0 933.8 +15.9 +29.0
03 12.01 штиль 0 15 км ясно +21.4 +6.3 37 +22 +22 комфорт 1007.7 934.8
06 12.01 штиль 0 15 км ясно +18.5 +7.4 48 +19 +19 1006.8 934.2
09 12.01 штиль 0 15 км ясно +15.5 +8.7 64 +15 +15 1007.7 934.9
12 12.01 СЗ 4 15 км ясно +19.6 +13.5 68 +21 +25 комфорт 1008.5 935.8 +14.3 +24.9
15 12.01 СВ 3 15 км ясно +26.6 +14.9 49 +29 +46 жарко 1006.5 934.2
18 12.01 ЮВ 3 15 км 3/3 1200 м
[Cu hum]
+30.9 +14.3 36 +33 +45 душно 1003.4 931.6
21 12.01 ЮВ 3 15 км 6/3 1200 м
[Cu hum Ci]
+32.4 +12.0 29 +33 +36 жарко 1001.4 929.6
00 13.01 ЮЗ 1 15 км 6/4 1050 м
[Cu med, cong Ac As]
+28.0 +12.8 39 +29 +29 жарко 1003.2 931.2 +19.6 +33.0
03 13.01 ЮВ 1 6000 м сильн. гроза, ливневой дождь 10/9 900 м
[Cb cap Ac As]
+16.8 +15.5 92 +18 +18 1009.6 936.6
06 13.01 ЮВ 1 6000 м слаб. ливневой дождь, в посл. час гроза 10/8 900 м
[Cb cap Ac As]
+17.0 +16.3 96 +18 +18 1009.3 936.9 24
09 13.01 ЮВ 1 15 км 9/6 1050 м
[St Ac As]
+16.8 +15.1 90 +18 +18 1011.5 939.0
12 13.01 Ю 1 15 км 9/5 1050 м
[Sc Ac As]
+18.3 +13.7 75 +20 +21 1012.5 939.7 +15.7 +28.0 1
15 13.01 штиль 0 50 км ?/? +22.8 +13.0 54 +26 +26 жарко 1013.4 939.7
18 13.01 ЮВ 1 15 км 8/8 1050 м
[Sc]
+24.5 +12.8 48 +26 +31 жарко 1011.6 938.2
21 13.01 ЮВ 3 15 км 8/8 1050 м
[Cu Sc]
+24.7 +13.4 49 +27 +28 жарко 1010.3 937.0
00 14.01 штиль 0 15 км 8/8 1050 м
[Sc]
+23.0 +15.0 61 +27 +27 душно 1011.2 937.8 +18.3 +26.1
03 14.01 штиль 0 15 км 9/9 1050 м
[Sc]
+22.0 +15.9 68 +26 +26 душно 1011.9 939.0
06 14.01 штиль 0 8000 м слаб. дождь 10/10 1050 м
[St]
+20.0 +17.1 83 +23 +23 комфорт 1010.5 937.6 0.0
09 14.01 штиль 0 15 км в посл. час дождь 4/4 1050 м
[Sc]
+17.5 +15.0 85 +17 +17 1010.8 937.6
12 14.01 штиль 0 15 км {дождь} 5/5 1050 м
[Sc]
+18.9 +14.0 73 +20 +23 1011.8 938.5 +16.6 +23.0 1
15 14.01 штиль 0 15 км 9/9 1050 м
[Sc]
+22.2 +13.1 56 +25 +27 комфорт 1010.9 938.0
18 14.01 СВ 1 15 км в посл. час гроза {дождь} 5/5 1050 м
[Sc]
+18.9 +16.3 85 +21 +32 комфорт 1011.0 937.4 4
21 14.01 СВ 1 15 км 8/8 1050 м
[Sc]
+22.2 +14.3 61 +25 +27 комфорт 1009.0 935.7
00 15.01 штиль 0 15 км 8/8 1200 м
[Sc]
+20.8 +14.5 67 +23 +23 комфорт 1010.1 936.6 +17.6 +23.8
03 15.01 штиль 0 15 км 9/9 1200 м
[Sc]
+19.1 +15.3 79 +20 +20 1011.1 937.8
06 15.01 СЗ 1 15 км 4/4 1200 м
[Sc]
+16.4 +14.5 89 +17 +17 1010.2 936.2
09 15.01 штиль 0 8000 м дымка ясно +15.1 +14.1 94 +15 +15 1009.7 936.0
12 15.01 СЗ 1 15 км ясно +18.9 +14.4 75 +21 +27 комфорт 1010.2 936.8 +14.3 +20.8 4
15 15.01 СВ 1 15 км ясно +25.5 +14.1 49 +28 +49 жарко 1008.6 935.8
18 15.01 СВ 4 15 км ясно +29.3 +9.6 29 +29 +42 жарко 1005.7 933.3
21 15.01 С 3 15 км ясно +30.7 +7.4 23 +29 +35 жарко 1003.1 930.9
00 16.01 штиль 0 15 км ясно +26.4 +10.8 38 +27 +27 жарко 1004.2 931.8 +18.9 +31.6

 

Местоположение метеостанции Сан-Мартин (Аргентина): широта -33.08 долгота -68.41 высота над уровнем моря 653 м.

В архиве по умолчанию представлена погода в Сан-Мартине за последнюю неделю. Архивные данные за месяц целиком и за предыдущие месяцы, начиная с января 2011 года, Вы можете получить, выбрав интересующий диапазон дат из раскрывающегося списка и нажав кнопку "Ввод!".


*Определитесь, кто Вы:
робот инопланетянин человек

Внимание! Время в таблицах - всемирное. Для получения местного времени необходимо прибавить поправку, которая равна -3 ч.

Смотрите также архив погоды в соседних городах и на ближайших метеорологических станциях:

Погода в Мендосе (Аргентина) (44 км)
Погода в Сан-Рафаэле (Аргентина) (167 км)
Погода в Сан-Хуане (Аргентина) (187 км)
Погода в Сан-Луисе (Аргентина) (193 км)
Погода в Сантьяго (Чили) (215 км)
Погода в Пудауэле (Чили) (223 км)
Погода в Маларгуэ (Аргентина) (290 км)
Погода в Вилья Рейнольдс (Аргентина) (290 км)
Погода в Пунта-Анджелесе (Чили) (301 км)
Погода в Сан-Антонио (Чили) (302 км)

Пояснения к столбцам:

Ветер - указаны скорость ветра в м/с - средняя за 10 мин, порывы в срок и между сроками (в фигурных скобках) и направление, откуда дует ветер: С - северный, СВ - северо-восточный, В - восточный, ЮВ - юго-восточный, Ю - южный, ЮЗ - юго-западный, З - западный, СЗ - северо-западный.
Видимость - горизонтальная дальность видимости в метрах или километрах. При видимости от 1 до 10 км при отсутствии осадков обычно наблюдается дымка, при ухудшении видимости до 1 км и менее - туман. В сухую погоду видимость может ухудшаться дымом, пылью или мглою.
Явления - указаны атмосферные явления, наблюдавшиеся в срок или в последний час перед сроком; фигурными скобками обозначены явления, наблюдавшиеся между сроками (за 1-3 часа до срока); квадратными скобками обозначены град или гололедные отложения с указанием их диаметра в мм.
Облачность - указаны через наклонную черту общая и нижняя облачность в баллах и высота нижней границы облаков в метрах; квадратными скобками обозначены формы облаков: Ci - перистые, Cs - перисто-слоистые, Cc - перисто-кучевые, Ac - высококучевые, As - высокослоистые, Sc - слоисто-кучевые, Ns - слоисто-дождевые, Cu - кучевые, Cb - кучево-дождевые. Подробнее классификацию облаков см. в Атласе облаков (PDF).
T - Температура воздуха - температура, измеренная на высоте 2 м над землей.
Td - Температура точки росы - температура, при понижении до которой содержащийся в воздухе водяной пар достигнет насыщения.
f - Относительная влажность воздуха - влажноcть воздуха, измеренная на высоте 2 м над землей.
Te - Эффективная температура - температура, которую ощущает одетый по сезону человек в тени. Характеристика душности погоды. При расчете учитывается влияние влажности воздуха и скорости ветра на теплоощущения человека.
Tes - Эффективная температура на солнце - температура, которую ощущает человек, с поправкой на солнечный нагрев. Характеристика знойности погоды. Зависит от высоты солнца над горизонтом, облачности и скорости ветра. Ночью, в пасмурную погоду, а также при ветре 12 м/с и более поправка равна нулю.
P - Атмосферное давление - приведенное к уровню моря атмосферное давление.
Po - Атмосферное давление - измеренное на уровне метеостанции атмосферное давление.
Tmin - Минимальная температура - минимум температуры воздуха на высоте 2 м над землей.
Tmax - Максимальная температура - максимум температуры воздуха на высоте 2 м над землей.
R - Количество осадков - Количество выпавших осадков за период времени, мм. При наведении курсора мыши на число - период времени, за который выпало указанное количество осадков.
R24 - Количество осадков - Количество выпавших осадков за 24 часа, мм.
S - Снежный покров - Высота снежного покрова, см. При наведении курсора мыши на число - состояние снежного покрова и степень покрытия местности в баллах.